Voltar ao catálogo

STARLINK-31171

AtivoComunicaçõesVLEO
NORAD 58834·PAYLOAD·🇺🇸 United States

Lançado Jan 24, 2024 de Vandenberg Space Force Base

Loading…

Próximas Passagens (próximas 24 horas)

TLE

AtualizadoSource: CelesTrak SupGP

Época: Sep 14, 2026, 21:44 UTC

1 58834C 24017J   26257.90604167  .00012641  00000+0  37365-3 0  2574
2 58834  53.1590  19.6137 0001272  80.3885 286.1375 15.34369441    17

Acompanhe STARLINK-31171 em tempo real com AllMySat

Download on the App Store